Погода в Солонцовом

Россия / Хабаровский край     47°09′08″N   136°05′37″E
темп.,
°C
ветер,
м/с
пор.,
м/с
влажн.,
%
обл.,
%
осадки,
мм/ч
давл.,
гПа
погр.,
м
17 мая, пн
пн1701:00+8ю337241 0.0 100349
04:00+7ю227787 0.0 100319
07:00+10ю23720 0.0 1003103
10:00+18сз26345 0.0 10021810
13:00+20ссз34230 0.0 10022688
16:00+21сз24223 0.0 10012864
19:00+18ссз11381 0.0 100214
22:00+11ююв22490 0.0 100411
18 мая, вт
вт1801:00+9ююв23601 0.0 100541
04:00+8ююв36710 0.0 100693
07:00+11ю310605 0.0 1005264
10:00+20ююз58351 0.0 1005896
13:00+24юз57275 0.0 10042459
16:00+25зюз57275 0.0 10032772
19:00+21юз49400 0.0 1003699
22:00+14ю34640 0.0 100559
19 мая, ср
ср1901:00+12ю36710 0.0 100592
04:00+11ю310710 0.0 1005198
07:00+14ю311610 0.0 1004345
10:00+21юз59334 0.0 10041269
13:00+24зюз583397 0.0 10031670
16:00+24зюз473599 0.0 10031908
19:00+17сз127144 0.4 100555
22:00+13ююз11870 1.5 100710
20 мая, чт
чт2001:00+12ююв22920 0.0 100820
04:00+11ююв23940 0.0 100846
07:00+14ююв24880 0.0 1008123
10:00+22ю58485 0.0 1006843
13:00+27юз6113268 0.0 10042112
16:00+26юз583799 0.0 10051452
19:00+24зюз4104797 0.0 10051053
22:00+16ю36745 0.0 100686
21 мая, пт
пт2101:00+14ю35890 1.1 100784
04:00+13ю369312 1.1 100793
07:00+15ю368176 0.1 1007190
10:00+22юз1245100 0.1 1007866
13:00+26зюз2335100 0.0 10051471
16:00+27ссз3336100 0.0 10042153
19:00+23с3745100 0.0 1004544
22:00+16ссв1259100 0.1 100513